Wind_Speed
19 25 27 27 29 32 33 34 34 31 30 29 29 27 26 25 25 26 27 29 29 28 26 26 26 25 25 25 25 24 24 23 22 22 22 22 21 21 21 22 19 18 21
26 28 30 28 30 32 33 33 33 32 30 30 30 29 28 28 29 28 28 28 28 28 26 26 25 26 25 25 25 25 24 22 24 19 20 21 22 21 21 21 23 21 20
27 29 30 30 30 32 34 34 33 31 31 30 30 31 30 31 29 27 26 26 27 26 26 25 25 24 25 25 24 23 23 22 24 22 17 17 18 20 20 21 22 21 21
26 29 31 33 33 34 34 32 31 31 31 33 33 32 33 31 30 28 26 27 27 28 26 24 25 23 24 23 22 21 21 22 22 16 15 16 17 18 18 19 19 20 20
31 30 31 33 34 34 33 33 32 32 34 35 34 35 33 31 32 30 29 29 30 28 25 23 24 24 23 21 20 20 19 21 18 14 15 15 14 15 16 17 17 17 18
27 28 32 31 31 32 32 32 33 34 35 35 34 34 33 33 32 30 31 32 30 27 24 24 24 23 21 20 18 17 17 18 12 13 15 15 14 15 15 16 16 16 17
23 26 34 31 28 27 27 30 34 37 36 36 35 33 33 33 31 30 28 29 29 26 25 25 23 21 19 18 16 15 15 15 12 12 14 14 14 15 16 16 17 17 18
22 34 38 36 32 26 27 29 31 35 38 36 35 37 33 33 31 29 28 28 29 28 25 23 21 19 18 17 14 14 14 13 12 12 13 13 14 14 16 16 17 18 18
16 30 42 38 32 31 28 30 30 28 36 36 35 37 34 33 32 31 30 29 28 26 24 23 21 19 16 16 14 13 13 13 11 12 10 10 13 14 15 16 16 17 17
17 20 36 31 32 30 32 30 33 27 31 34 34 34 32 31 30 30 29 27 26 25 24 23 21 18 16 14 13 13 14 13 10 10 11 9 11 12 13 14 14 15 16
24 31 40 39 38 32 31 26 28 29 26 29 31 31 29 23 22 22 21 24 23 24 23 20 19 16 14 13 12 12 12 8 9 8 8 8 8 9 11 12 12 14 14
23 27 37 37 41 29 29 28 20 23 22 24 28 27 21 20 18 18 22 22 21 20 20 19 16 13 11 9 8 11 8 8 7 7 5 8 6 8 8 9 10 11 12
26 29 27 33 26 30 29 31 25 17 17 20 27 18 18 18 19 18 20 18 17 18 16 14 10 8 9 8 9 7 7 7 6 6 4 3 6 7 8 8 8 9 10
25 30 32 31 36 32 25 36 33 20 20 22 21 16 17 17 16 16 16 15 15 12 12 10 9 10 9 8 8 6 8 7 7 4 2 5 6 7 7 6 6 6 7
23 23 24 26 27 26 23 30 28 21 22 18 18 16 15 13 13 14 14 15 13 13 11 10 9 8 7 7 6 7 8 8 6 4 2 4 6 8 6 5 4 3 3
20 24 33 28 28 31 31 27 13 14 17 17 16 14 14 13 14 13 13 12 12 12 10 9 8 7 5 4 6 7 7 6 5 4 3 3 6 9 6 5 3 3 1
24 27 28 29 26 23 19 16 16 18 18 17 14 13 13 13 13 13 13 13 12 11 11 10 8 7 5 4 5 5 5 5 3 3 2 2 3 8 9 6 6 3 2
24 30 30 30 25 20 13 15 16 15 15 16 15 16 17 12 13 13 12 13 12 13 13 14 9 5 4 3 3 2 2 2 2 1 1 2 2 2 5 8 7 8 8
24 26 29 29 20 15 12 11 12 14 17 15 13 13 15 14 14 14 14 14 15 17 16 13 7 6 4 3 2 0 1 1 3 3 2 4 4 2 5 8 10 10 9
26 30 28 23 19 16 14 14 13 14 15 15 15 17 18 17 18 18 15 16 17 15 14 10 9 7 5 4 2 2 3 4 6 6 6 7 6 6 7 7 7 8 9
28 29 27 25 22 19 18 17 16 16 17 17 15 13 14 14 16 17 16 16 18 15 14 16 11 9 6 5 3 4 7 8 9 9 10 10 10 9 8 9 8 9 11
32 31 28 27 24 22 19 18 18 18 18 18 16 18 18 15 15 17 17 19 19 16 16 16 12 8 6 5 2 4 4 4 8 12 12 12 12 11 10 10 10 11 12
33 33 30 28 25 24 21 19 18 15 14 17 17 16 18 16 17 17 18 18 18 18 20 15 13 11 9 7 5 4 3 6 11 10 11 12 12 12 11 11 12 13 13
33 32 31 28 26 24 24 21 21 20 19 18 17 15 16 19 18 18 18 18 18 19 17 16 14 13 10 7 6 9 10 10 5 6 5 10 9 12 13 13 14 16 16
31 31 30 28 27 26 25 25 23 23 20 18 16 16 18 18 18 18 18 21 21 18 18 17 15 14 13 11 10 8 10 11 10 9 9 11 10 12 12 13 15 17 16
30 30 30 29 29 28 27 27 27 25 23 20 20 18 17 17 18 19 21 25 23 19 19 18 18 18 13 10 13 12 11 10 9 10 10 14 15 15 13 14 15 14 14
Wind_Direction
166 160 162 156 155 152 152 154 151 149 146 144 139 136 133 131 127 125 123 120 119 115 113 110 106 101 98 96 96 93 92 91 87 79 76 73 69 67 69 76 66 65 65
162 159 163 159 156 150 150 154 151 149 148 144 138 136 133 129 127 126 126 125 122 119 117 111 105 102 100 99 96 95 93 90 85 78 63 69 66 64 64 68 71 63 61
165 159 164 160 156 154 157 155 154 153 146 139 139 134 131 129 128 128 127 128 125 124 118 112 106 105 104 101 97 94 91 86 81 77 73 67 61 58 58 60 61 61 61
165 163 164 166 162 159 157 156 152 144 140 138 135 134 132 130 127 124 125 131 130 124 118 113 111 108 104 99 94 90 86 82 78 72 70 67 61 58 60 60 62 64 59
164 166 164 168 165 163 159 157 153 148 140 137 137 134 133 131 128 126 122 125 128 124 120 116 113 110 103 97 92 89 84 78 77 71 73 71 67 60 61 70 62 63 68
170 165 163 163 160 160 159 155 149 143 140 140 137 136 134 132 129 127 125 125 126 126 120 118 115 110 103 99 95 89 85 82 71 70 74 73 71 69 66 66 64 61 61
170 156 158 155 155 149 147 148 147 145 142 139 136 134 136 134 132 129 131 130 129 126 125 123 117 109 103 99 92 86 84 85 73 71 72 69 73 74 74 73 71 69 66
157 154 156 152 151 150 146 147 145 145 142 139 139 140 141 137 132 131 131 131 128 127 125 121 116 112 107 98 89 86 82 84 73 71 73 73 72 72 74 73 71 70 69
161 165 146 149 152 148 147 147 142 140 140 142 145 141 143 139 136 132 130 128 127 128 127 123 120 115 107 97 92 80 74 84 75 75 74 77 81 72 72 70 71 73 73
148 131 132 138 141 146 147 145 142 146 142 147 144 141 141 141 138 134 131 130 128 126 127 125 120 110 104 93 82 72 70 69 70 68 64 79 89 77 78 80 79 75 70
124 131 144 148 146 137 137 149 147 146 148 146 142 141 133 135 134 129 141 135 134 133 129 123 119 113 102 88 73 68 69 65 65 63 67 105 103 92 87 86 81 77 76
123 126 144 144 138 140 153 141 137 148 147 148 147 139 144 144 143 144 144 142 142 138 132 127 122 104 90 84 64 55 62 62 57 59 69 112 115 110 105 103 89 85 81
130 127 131 140 152 141 137 140 147 146 138 155 156 153 151 144 140 140 144 142 139 138 131 126 116 105 88 78 70 62 52 44 37 37 29 159 132 139 126 114 102 94 91
131 134 143 144 148 145 146 138 136 166 181 163 167 168 155 148 153 157 158 160 155 159 145 145 120 108 95 86 81 71 56 43 34 30 346 188 165 161 140 136 119 107 101
136 143 144 139 143 146 157 151 164 173 171 179 179 173 167 165 162 166 171 168 167 159 154 144 129 121 110 89 80 64 54 48 34 39 53 172 168 167 156 148 135 128 127
150 148 151 155 159 155 149 160 167 179 185 183 180 183 175 172 177 177 175 170 168 164 158 152 151 134 122 106 74 65 54 47 42 62 69 68 168 164 165 155 170 173 164
158 158 160 157 161 163 164 184 188 192 191 187 189 187 185 188 187 186 181 177 175 169 168 162 147 146 137 93 76 52 44 45 50 52 56 129 132 191 182 151 165 187 258
161 160 166 173 172 183 187 183 190 192 191 197 194 194 195 197 196 195 187 188 185 182 180 183 162 165 133 115 111 68 42 75 115 68 125 150 174 204 252 252 248 261 273
167 168 170 179 192 201 202 200 196 199 199 201 204 208 213 212 210 203 202 197 194 195 187 173 169 168 157 161 174 148 358 220 219 219 183 190 196 237 279 277 266 275 274
178 178 182 192 202 208 210 204 202 206 206 206 209 218 229 219 218 210 204 202 193 188 181 175 175 167 183 187 213 267 302 258 249 240 228 226 229 258 283 263 270 278 281
184 188 197 201 207 208 210 208 208 211 209 212 213 219 218 209 211 204 203 195 189 189 186 186 175 172 178 188 241 270 274 255 241 239 242 250 250 268 272 254 269 280 291
192 197 201 206 209 212 213 214 216 217 218 219 220 224 226 210 205 201 197 197 191 190 187 181 185 187 199 196 272 302 298 238 227 240 248 253 261 269 270 256 278 284 280
203 204 205 208 211 213 215 212 210 214 214 210 217 224 227 219 208 207 204 198 194 191 191 186 193 202 208 198 201 275 294 308 322 268 241 253 262 263 269 266 279 287 286
209 211 214 217 216 215 213 214 212 212 218 220 221 221 222 218 212 213 210 198 194 191 188 196 199 206 200 202 211 250 254 283 299 296 239 242 251 269 274 273 286 288 285
210 213 216 218 219 217 214 216 216 221 227 226 212 214 210 212 213 212 208 203 198 195 197 198 197 196 193 188 224 219 245 266 263 272 289 293 281 266 270 272 286 289 287
209 211 212 212 213 213 212 215 218 220 219 216 217 214 212 211 210 210 209 213 199 197 196 197 195 196 200 215 224 227 257 262 274 275 278 285 292 288 278 286 287 286 287
Height
793 796 801 805 806 808 811 813 815 817 820 824 827 830 833 834 837 839 843 842 846 847 849 850 850 852 851 852 852 853 853 854 855 855 855 855 856 855 854 853 853 853 852
792 796 801 806 808 809 812 814 817 820 823 826 829 831 834 836 838 841 844 846 847 849 851 853 854 854 855 856 856 856 856 859 858 859 857 858 858 859 858 855 854 856 855
792 794 801 804 807 809 812 815 819 821 825 828 831 833 836 838 841 843 846 849 850 853 854 854 856 858 857 858 859 860 858 861 859 861 862 862 862 862 861 859 858 858 858
793 797 800 803 807 810 812 817 820 823 826 829 833 835 837 840 842 846 848 849 853 855 857 859 857 861 860 861 861 862 862 862 862 863 863 864 865 865 864 863 861 861 861
786 795 800 803 808 812 814 818 821 824 827 830 834 836 839 842 844 847 850 853 855 858 859 861 861 863 862 863 865 865 865 865 865 867 866 866 868 869 866 865 865 864 862
790 795 798 805 810 813 816 820 822 825 829 831 836 839 842 845 848 850 852 854 858 859 863 863 864 864 864 866 867 868 868 868 869 869 869 870 871 871 870 869 869 868 865
792 795 799 806 814 818 821 823 825 827 832 834 838 843 846 848 850 852 857 857 858 862 864 865 866 868 868 870 870 870 871 871 871 872 872 874 874 873 872 871 870 870 868
788 794 797 805 815 821 824 827 830 832 832 836 840 843 849 849 852 855 859 861 860 863 867 869 869 871 872 872 874 873 873 873 873 874 874 877 878 876 874 873 873 872 872
796 790 793 805 816 818 826 829 833 839 836 838 844 844 850 852 854 858 862 864 865 866 868 870 872 873 875 874 876 876 875 876 875 874 875 877 878 878 877 877 877 875 876
798 803 799 803 815 821 827 831 829 841 841 843 845 849 854 856 859 861 864 867 868 869 871 872 874 875 877 878 878 878 877 878 878 877 878 880 879 880 879 878 880 878 878
802 803 807 813 816 820 823 832 838 839 846 850 850 852 858 862 865 867 867 869 871 872 873 874 875 876 878 879 880 881 881 881 878 878 879 882 881 881 881 881 881 879 879
806 808 809 815 819 827 832 832 841 847 848 852 855 855 860 864 866 868 870 871 873 875 874 876 878 879 881 880 882 882 882 881 880 879 880 882 882 881 883 883 882 881 880
807 811 818 821 826 829 832 834 842 847 850 854 855 859 862 864 867 870 871 875 877 877 878 879 881 880 881 882 881 884 882 881 880 880 880 882 881 882 882 883 883 883 881
813 817 822 825 828 826 836 837 843 853 858 855 856 860 861 864 867 871 872 875 876 879 878 881 880 879 881 882 881 883 881 882 881 881 882 883 883 882 881 883 883 884 882
817 821 825 830 833 836 842 842 848 851 854 858 859 860 862 865 868 871 873 874 876 877 878 880 880 880 881 883 884 883 882 880 882 882 883 883 882 883 883 883 882 883 883
821 824 828 833 836 840 844 844 845 848 855 858 859 860 861 863 865 870 872 873 875 877 878 879 880 880 882 883 882 882 882 882 883 882 883 883 882 882 883 882 882 883 883
823 828 834 837 840 843 846 849 850 853 855 856 859 860 861 863 866 868 869 870 874 875 877 878 878 880 881 882 881 882 882 882 883 884 882 883 882 882 882 881 881 882 882
821 827 833 837 839 842 845 847 850 850 853 856 857 857 858 863 864 867 868 870 872 873 874 875 877 879 880 880 880 881 881 880 881 883 882 881 881 881 881 880 880 880 880
819 825 830 835 837 840 843 845 846 849 852 854 855 857 859 861 863 865 866 868 868 870 871 873 876 877 879 879 880 880 880 880 880 881 880 881 880 880 879 877 878 878 878
818 823 827 832 834 837 841 843 846 848 849 851 853 853 855 858 860 863 863 865 866 869 870 872 874 875 877 878 879 879 879 879 880 880 879 879 878 878 877 877 877 875 875
816 821 824 827 831 834 837 839 840 843 846 849 850 852 853 856 857 859 861 862 864 866 868 869 872 874 875 876 876 875 875 877 877 877 878 877 876 875 874 875 874 873 872
812 815 819 823 827 830 832 834 837 840 842 845 847 847 848 850 854 855 857 859 860 863 864 867 870 872 873 874 874 874 867 869 873 874 873 873 873 873 872 872 872 872 871
807 810 814 817 821 824 828 831 834 837 840 842 843 844 844 846 849 851 853 856 857 859 861 864 867 869 870 872 873 873 867 863 865 864 868 869 870 870 869 869 869 869 869
799 805 809 812 816 819 823 826 828 830 832 835 838 839 841 843 846 849 850 851 853 855 858 861 863 865 866 868 871 872 871 870 865 861 861 864 866 867 867 867 866 865 865
794 798 802 806 810 814 818 821 824 826 828 831 834 835 837 838 842 844 846 846 850 852 855 857 860 862 862 864 867 870 869 867 867 866 860 858 859 860 861 862 862 862 861
785 790 795 799 803 807 812 815 818 820 822 825 828 830 833 835 837 838 841 843 846 848 850 854 856 856 858 861 864 864 864 862 859 860 859 857 855 856 857 859 859 858 857